Regional Weather Roundup
Issued by NWS

Home | Current Version | Previous Version | Graphics & Text | Print | Product List | Glossary On
Versions: 1 2 3 4 5 6 7 8 9 10 11 12 13 14 15 16 17 18 19 20 21 22 23 24 25 26 27 28 29 30 31 32 33 34 35 36 37 38 39 40 41 42 43 44 45 46 47 48 49 50
000
ASUS43 KMPX 301810
RWRMN
WEATHER ROUNDUP FOR MINNESOTA
NATIONAL WEATHER SERVICE TWIN CITIES/CHANHASSEN MN
100 PM CDT SAT MAY 30 2015


NOTE: "FAIR" INDICATES FEW OR NO CLOUDS BELOW 12,000 FEET WITH NO
SIGNIFICANT WEATHER AND/OR OBSTRUCTIONS TO VISIBILITY. N/A MEANS
CURRENT SKY AND/OR WEATHER CONDITIONS ARE NOT AVAILABLE.

MNZ060>063-068>070-301900-
   Twin Cities Metro

CITY           SKY/WX    TMP DP  RH WIND       PRES   REMARKS
TWIN CITIES    PTSUNNY   59  41  51 NE14G22   30.24S
6HR MIN TEMP:  47; 6HR MAX TEMP:  59;

ST PAUL        CLOUDY    58  42  55 NE14      30.25R
CRYSTAL        MOSUNNY   60  41  49 N9        30.24S
BLAINE         PTSUNNY   59  43  55 N13G22    30.25
LAKEVILLE      PTSUNNY   55  45  67 N9        30.23S
EDEN PRAIRIE   SUNNY     59  41  51 N9        30.23R
6HR MIN TEMP:  47; 6HR MAX TEMP:  60;

SOUTH ST PAUL  PTSUNNY   57  41  55 N10G17    30.24R
LAKE ELMO      CLOUDY    57  45  62 NE8G16    30.25S
$$
MNZ001>005-007-008-013>017-022>024-027-028-301900-
   Northwest Minnesota

CITY           SKY/WX    TMP DP  RH WIND       PRES   REMARKS
BEMIDJI        SUNNY     49  31  49 NE10      30.34F
HALLOCK        SUNNY     48  27  43 NE7       30.40F
ROSEAU         SUNNY     48  28  46 CALM      30.39F
WARROAD        SUNNY     45  34  65 E10       30.40F
THIEF RVR FALL SUNNY     46  28  49 N8        30.39S
CROOKSTON      SUNNY     48  28  46 NE8       30.39F
FOSSTON        SUNNY     48  39  71 NE6G17    30.36S
DETROIT LAKES  SUNNY     50  34  53 NW7G21    30.33F
MOORHEAD       SUNNY     48  36  61 N10G16    30.37F
PARK RAPIDS    SUNNY     53  30  41 MISG      30.31F
MAHNOMEN       FAIR      48  34  59 NE12      30.35S
$$
MNZ006-009>011-018-025>026-301900-
   North Central Minnesota

CITY           SKY/WX    TMP DP  RH WIND       PRES   REMARKS
BAUDETTE       SUNNY     47  32  56 NW12      30.37S
FLAG ISLAND    SUNNY     45  27  49 NE8       30.39S
INTL FALLS     SUNNY     48  28  46 NE8       30.36S
6HR MIN TEMP:  35; 6HR MAX TEMP:  48;

WASKISH        SUNNY     48  34  57 N6        30.36F
BIG FORK       SUNNY     52  27  37 N9        30.34S
LONGVILLE      SUNNY     52  30  43 N5        30.31F
GRAND RAPIDS   SUNNY     50  28  43 N9G18     30.32S
CRANE LAKE     SUNNY     46  28  49 N6        30.36F
ORR            SUNNY     46  25  42 CALM      30.31F
COOK           SUNNY     48  30  49 N9        30.34S
WALKER         FAIR      48  30  48 NE5       30.32F
$$
MNZ012-019>021-037-301900-
   Northeast Minnesota

CITY           SKY/WX    TMP DP  RH WIND       PRES   REMARKS
DULUTH         MOSUNNY   54  33  45 NE9G17    30.27S
6HR MIN TEMP:  43; 6HR MAX TEMP:  54;

HIBBING        SUNNY     52  29  41 VRB7      30.31S
EVELETH        SUNNY     52  32  46 NE8       30.31F
DULUTH HARBOR  SUNNY     50  39  66 E9        30.31S
TWO HARBORS    SUNNY     54  39  58 SE10      30.27S
SILVER BAY     SUNNY     54  34  47 E7        30.27S
GRAND MARAIS     N/A     45  35  68 VRB3      30.31R
G MARAIS ARPRT SUNNY     46  25  42 N7        30.29S
$$
MNZ029>031-032-039>041-046>048-054>057-064-301900-
   West Central Minnesota

CITY           SKY/WX    TMP DP  RH WIND       PRES   REMARKS
FERGUS FALLS   SUNNY     52  36  54 N7        30.34S
WHEATON        SUNNY     48  37  66 N13       30.36S
MORRIS         SUNNY     55  41  58 N13       30.31S
ALEXANDRIA     SUNNY     52  36  54 NE10      30.31S
ELBOW LAKE     FAIR      51  36  57 N15       30.32S
WADENA         SUNNY     52  34  50 N13       30.30F
GLENWOOD       SUNNY     54  37  54 N10G17    30.30S
APPLETON       MOSUNNY   55  39  54 N9G18     30.31S
BENSON         SUNNY     55  36  47 NE5G16    30.30F
ORTONVILLE     MOSUNNY   52  37  58 N10G20    30.33S
MADISON        MOSUNNY   54  41  62 N12G17    30.31S
WILLMAR        FAIR      55  43  62 N13       30.29F
$$
MNZ033>034-036-042>043-049>051-058-059-301900-
   Central Minnesota

CITY           SKY/WX    TMP DP  RH WIND       PRES   REMARKS
ST CLOUD       SUNNY     56  38  50 N12G20    30.27S
6HR MIN TEMP:  44; 6HR MAX TEMP:  56;

SAUK CENTRE    FAIR      53  33  46 N10G18    30.30R
PAYNESVILLE    SUNNY     52  38  58 N10G18    30.28F
AITKIN         SUNNY     55  30  38 N12       30.28S
PINE RIVER     SUNNY     50  34  53 N9        30.34S
BRAINERD       SUNNY     52  32  46 N10       30.30F
STAPLES        SUNNY     52  30  43 N9G18     30.31S
LONG PRAIRIE   FAIR      52  34  50 NW7       30.30S
LITTLE FALLS   SUNNY     52  32  46 NE12      30.29S
LITCHFIELD     SUNNY     55  39  54 N8G17     30.27F
BUFFALO        SUNNY     57  38  50 N10       30.26F
MAPLE LAKE     SUNNY     57  41  55 N12       30.27F
$$
MNZ037-044-045-052-053-301900-
   East Central Minnesota

CITY           SKY/WX    TMP DP  RH WIND       PRES   REMARKS
PRINCETON      SUNNY     59  37  44 N8        30.26F
MORA           SUNNY     55  34  44 NE8       30.28F
CAMBRIDGE      SUNNY     59  43  55 NE9       30.24F
RUSH CITY      MOSUNNY   57  41  54 N7        30.26S
MOOSE LAKE     SUNNY     54  32  43 N7        30.26S
HINCKLEY       FAIR      55  39  54 N10       30.27S
CLOQUET        SUNNY     54  28  37 NE12G17   30.28S
MCGREGOR       SUNNY     54  34  47 N15       30.29F
$$
MNZ071>073-080-081-089-090-097-098-301900-
   Southwest Minnesota

CITY           SKY/WX    TMP DP  RH WIND       PRES   REMARKS
MONTEVIDEO     MOSUNNY   55  43  62 NE14G23   30.30F
GRANITE FALLS  MOSUNNY   56  40  56 N13G20    30.30F
CANBY          MOSUNNY   53  41  64 N14G21    30.32S
MARSHALL       MOSUNNY   54  39  58 N16       30.28S
REDWOOD FALLS  SUNNY     57  40  52 N12G20    30.27F
OLIVIA         SUNNY     54  37  54 N9G20     30.26F
PIPESTONE      MOSUNNY   54  41  62 N9G17     30.27F
WINDOM         MOSUNNY   55  45  67 N16       30.25S
WORTHINGTON    MOSUNNY   54  41  62 N16G25    30.26S
JACKSON        PTSUNNY   54  43  66 N14G22    30.25S
TRACY          MOSUNNY   55  42  61 N16G23    30.28S
SLAYTON        MOSUNNY   52  40  64 N13       30.28S
$$
MNZ065>067-074>077-082>085-091>093-301900-
   South Central Minnesota

CITY           SKY/WX    TMP DP  RH WIND       PRES   REMARKS
MANKATO        MOSUNNY   57  43  58 NE15      30.23F
NEW ULM        MOSUNNY   55  43  62 NE10G17   30.24S
ST JAMES       PTSUNNY   57  45  62 N14G22    30.25S
FAIRMONT       PTSUNNY   55  41  58 N17G24    30.23S
GLENCOE        SUNNY     58  45  62 N9        30.25S
FARIBAULT      PTSUNNY   55  45  67 N14       30.23S
OWATONNA       PTSUNNY   57  45  62 N16G22    30.22R
WASECA         PTSUNNY   55  46  71 N15       30.23S
ALBERT LEA     CLOUDY    57  48  72 N14G21    30.20S
$$
MNZ078>079-086>088-094>096-301900-
   Southeast Minnesota

CITY           SKY/WX    TMP DP  RH WIND       PRES   REMARKS
ROCHESTER      CLOUDY    54  47  77 NE16      30.21R
6HR MIN TEMP:  50; 6HR MAX TEMP:  54;

RED WING       CLOUDY    57  45  62 N7        30.22R
STANTON        CLOUDY    58  46  65 NE18      30.22R
DODGE CENTER   CLOUDY    55  48  76 N12G20    30.21R
WINONA         CLOUDY    59  50  72 N7        30.19R
AUSTIN         CLOUDY    54  48  82 NE15      30.19S
PRESTON        CLOUDY    54  48  81 N13       30.18R
$$
ABBREVIATIONS USED IN REMARKS
   TC - TEMPERATURES IN CELSIUS
  WCI - WIND CHILL INDEX
   HX - HEAT INDEX
  VSB - VISIBILITY
$$



USA.gov is the U.S. government's official web portal to all federal, state and local government web resources and services.